Regional Weather Roundup
Issued by NWS

Home | Current Version | Previous Version | Text Only | Print | Product List | Glossary On
Versions: 1 2 3 4 5 6 7 8 9 10 11 12 13 14 15 16 17 18 19 20 21 22 23 24 25 26 27 28 29 30 31 32 33 34 35 36 37 38 39 40 41 42 43 44 45 46 47 48 49 50
000
ASUS44 KFWD 202315
RWRTX
NORTH TEXAS HOURLY WEATHER ROUNDUP
NATIONAL WEATHER SERVICE FORT WORTH TX
600 PM CDT FRI OCT 20 2017

NOTE: "FAIR" INDICATES FEW OR NO CLOUDS BELOW 12,000 FEET WITH NO
SIGNIFICANT WEATHER AND/OR OBSTRUCTIONS TO VISIBILITY.

TXZ118-119-210000-
DALLAS/FORT WORTH METROPLEX

CITY           SKY/WX    TMP DP  RH WIND       PRES   REMARKS
DFW AIRPORT    MOCLDY    82  65  56 SE17G24   29.87F
DALLAS LOVE    MOCLDY    82  64  54 SE22      29.88F
FTW MEACHAM    MOCLDY    82  66  58 SE15      29.88S
DAL-EXECUTIVE  PTCLDY    81  65  58 SE17G23   29.89F
FTW-ALLIANCE   MOCLDY    80  66  62 SE10      29.89S
FTW-SPINKS     PTCLDY    81  63  54 SE14G20   29.90F
ARLINGTON      CLEAR     80  66  62 SE15G25   29.88F
GRAND PRAIRIE  CLEAR     81  63  54 E12G21    29.89F
ADDISON        PTCLDY    81  63  54 MISG      29.90F
MESQUITE       PTCLDY    81  64  57 SE16G22   29.92F
LANCASTER      MOCLDY    80  65  58 SE20G26   29.92S
$$

TXZ091>094-102>105-117-120-121-131>134-210000-
NORTH CENTRAL TEXAS

CITY           SKY/WX    TMP DP  RH WIND       PRES   REMARKS
SHRMAN/DENISON PTCLDY    78  64  63 SE13G21   29.91F
GAINESVILLE    PTCLDY    77  64  64 S16G23    29.92S
BOWIE          MOCLDY    76  65  67 S14G22    29.90R
BRIDGEPORT     MOCLDY    77  64  62 SE8       29.92S
DECATUR        MOCLDY    78  64  62 S14       29.90S
DENTON         MOCLDY    80  65  59 S15       29.89F
MCKINNEY       PTCLDY    81  66  60 S18       29.90F
BONHAM         MOCLDY    77  62  59 SE13      29.93S
GREENVILLE     PTCLDY    82  63  51 SE15      29.94F
ROCKWALL       CLOUDY    79  66  64 SE12G20   29.92S
TERRELL        MOCLDY    81  62  52 SE17G23   29.93F
WAXAHACHIE     MOCLDY    81  66  61 SE14G20   29.92S
CLEBURNE       CLEAR     81  64  57 S12       29.91S
GRANBURY       CLOUDY    81  64  56 SE12      29.91R
$$

TXZ083>090-098>101-113>116-127>130-139>142-154-155-210000-
WESTERN NORTH TEXAS

CITY           SKY/WX    TMP DP  RH WIND       PRES   REMARKS
WICHITA FALLS  CLOUDY    78  63  59 S22G31    29.85R
WF-KICKAPOO    CLOUDY    79  64  60 S21G29    29.88S
VERNON         MOSUNNY   83  55  37 S20G28    29.83S
ABILENE        MOSUNNY   79  60  52 S16G23    29.88S
ABILENE-DYESS  MOSUNNY   80  61  53 S18       29.87S
GRAHAM         MOSUNNY   78  64  62 SE8G22    29.87S
BRECKENRIDGE   SUNNY     80  62  54 SE16G25   29.87F HAZE
CISCO          MOSUNNY   79  63  57 SE16      29.90F
EASTLAND       SUNNY     78  65  64 SE16      29.90S
RANGER         CLOUDY    76  65  68 SE15G24   29.91F
MINERAL WELLS  CLOUDY    77  64  64 SE12      29.89S
STEPHENVILLE   CLOUDY    76  64  67 S9        29.95S
COMANCHE       PTSUNNY   78  65  65 SE13      29.91F
BROWNWOOD      SUNNY     79  61  53 S10G17    29.90F
COLEMAN        PTSUNNY   82  57  42 S17       29.90R
$$

TXZ143>147-156>162-174-175-210000-
CENTRAL TEXAS

CITY           SKY/WX    TMP DP  RH WIND       PRES   REMARKS
WACO           PTCLDY    83  64  52 SE14      29.89F
WACO-TSTC      PTCLDY    82  66  57 SE8G21    29.90F
WACO-MCGREGOR  PTCLDY    83  65  54 SE18      29.90S
HILLSBORO      PTCLDY    79  68  68 E15G22    29.91R
CORSICANA      PTCLDY    78  66  66 SE18G24   29.94
MEXIA          CLOUDY    78  67  68 E12G23    29.93S
HEARNE         MOCLDY    80  69  68 E6        29.93R
CAMERON        PTCLDY    82  68  63 SE9       29.91S
TEMPLE         CLOUDY    83  62  49 SE16      29.91S
KILLEEN        PTSUNNY   79  66  64 S10       29.91S
KILLEEN-SKYLRK MOSUNNY   79  66  64 S12       29.92S
FORT HOOD      MOSUNNY   78  65  63 S13       29.88S
GATESVILLE     CLOUDY    81  66  61 SE7       29.93S
HAMILTON       CLOUDY    79  67  66 S13G20    29.93F
LAMPASAS       MOSUNNY   79  68  69 S10       29.92S
$$

TXZ095>097-106>112-122>126-135>138-148>153-164>167-210000-
EAST TEXAS

CITY           SKY/WX    TMP DP  RH WIND       PRES   REMARKS
PARIS          PTCLDY    78  62  57 SE17G23   29.96F
SULPHUR SPRNGS CLEAR     78  63  58 SE12G18   29.98S
MOUNT PLEASANT CLEAR     77  61  57 SE9       29.99F
GILMER         PTCLDY    77  61  57 E9        29.99S
MINEOLA        MOCLDY    79  63  57 SE9G18    29.96F
TYLER          PTCLDY    78  62  57 SE16      29.97F
LONGVIEW       CLOUDY    79  63  57 E9        29.99F
MARSHALL       CLEAR     75  56  50 SE6       30.02S
ATHENS         MOCLDY    75  63  64 SE8       29.95F
PALESTINE      PTCLDY    77  67  72 SE8       29.98F
JACKSONVILLE   CLEAR     74  66  78 SE5       30.00F
HENDERSON      PTCLDY    79  62  55 SE8       30.00F
CENTER         CLOUDY    79  65  62 E5G16     30.02F
NACOGDOCHES    CLOUDY    76  63  64 SE8       30.00F
LUFKIN         CLOUDY    76  66  71 E6        29.98F
$$

SUPPLEMENTAL OBSERVATIONS (NWS FORT WORTH AREA)

CITY           SKY/WX    TMP DP  RH WIND       PRES   REMARKS
DENISON DAM      N/A     79  63  57 SE12        N/A
CADDO GRASSLND   N/A     79  61  53 S5G17       N/A
PAT MAYSE LAKE   N/A     79  63  57 E14         N/A
GREENVILLE       N/A     79  63  57 SE15G23     N/A
CEDAR HILL       N/A     81  63  54 SE8G17      N/A
LBJ GRASSLAND    N/A     77  64  65 S10G22      N/A
POSSUM KINGDOM   N/A     77  64  65 SE15G22     N/A
GRANBURY         N/A     81  64  57 SE13        N/A
COMANCHE         N/A     77  64  65 SE15        N/A
MCGREGOR         N/A     82  57  42 S15         N/A
TEMPLE           N/A     82  59  44 S7G17       N/A
LAKE LIMESTONE   N/A     79  68  69 E10G21      N/A
ATHENS           N/A     77  63  61 SE13G21     N/A
$$

SUPPLEMENTAL OBSERVATIONS (NWS NORMAN AREA)

CITY           SKY/WX    TMP DP  RH WIND       PRES   REMARKS
GOODLETT         N/A     82  57  42 S22G29    29.80S
ODELL            N/A     82  59  45 S21       29.83S
CROWELL          N/A     82  60  47 S21       29.83F
KNOX CITY        N/A     83  56  40 S20       29.84S
SEYMOUR          N/A     80  60  50 SE15      29.84F
MILLERS CREEK    N/A    N/A N/A N/A SE15        N/A
$$

SUPPLEMENTAL OBSERVATIONS (NWS SAN ANGELO AREA)

CITY           SKY/WX    TMP DP  RH WIND       PRES   REMARKS
WEINERT          N/A     82  59  45 S15       29.85S
HASKELL          N/A     81  56  42 S12G18    29.85R
THROCKMORTON     N/A     79  64  59 SE12      29.86F
STAMFORD         N/A     82  61  48 S17G24    29.86S
CLYDE            N/A     78  60  54 S14       29.90S
HAMBY            N/A     81  57  44 S16G24      N/A
IVIE RESERVOIR   N/A     81  57  44 S15         N/A
COLORADO BEND    N/A     79  64  61 S10         N/A
$$

SUPPLEMENTAL OBSERVATIONS (NWS SHREVEPORT AREA)

CITY           SKY/WX    TMP DP  RH WIND       PRES   REMARKS
CLARKSVILLE      N/A     77  59  53 SE14        N/A
TEXARKANA        N/A     75  59  57 SE2G12      N/A
LINDEN           N/A     77  57  50 E5          N/A
CADDO LAKE       N/A     77  57  50 SE3         N/A
GILMER           N/A     79  61  53 SE8         N/A
HENDERSON        N/A     79  59  50 SE10        N/A
LUFKIN           N/A     75  63  64 MISG        N/A
N SABINE NF      N/A     73  64  73 MISG        N/A
S SABINE NF      N/A     73  66  78 CALM        N/A
$$

SUPPLEMENTAL OBSERVATIONS ARE A COLLECTION OF AUTOMATED INSTRUMENTS
THAT ARE MAINTAINED BY A VARIETY OF FEDERAL AND STATE AGENCIES.
CERTAIN ELEMENTS...SUCH AS HUMIDITY VALUES AND SUSTAINED WIND
SPEEDS...MAY BE APPROXIMATED.





USA.gov is the U.S. government's official web portal to all federal, state and local government web resources and services.